User: anonymous   Login
Location: Caltech
(34.1382°N, 118.1253°W)
Time: 11:14:19
(UTC-07:00)
Language:

ERBS - Orbit

View from above orbital plane
View from above orbital plane
View from above satellite
View from above satellite

Ground track
Ground track

The orbit data is extracted from the following two-line orbital elements,

1 15354U 84108B   15181.94912004  .00004216  00000-0  12797-3 0  9996
2 15354 057.0118 331.6070 0013905 163.3021 196.8492 15.36202171687677
Epoch (UTC): 30 June 2015 22:46:43
Eccentricity: 0.0013905
inclination: 57.0118°
perigee height: 448 km
apogee height: 467 km
right ascension of ascending node: 331.6070°
argument of perigee: 163.3021°
revolutions per day: 15.36202171
mean anomaly at epoch: 196.8492°
orbit number at epoch: 68767

The dashed part of the orbit path shows where the satellite is in the earth's shadow,  

DLR